ALMUNTHER

导读

ALMUNTHER卫星计划于2025年3月15日发射,目前其发射国家尚未最终确定(标注为TBD)。作为一颗规划中的人造卫星,它的成功发射将为空间探索、对地观测或相关科学研究提供新的数据支撑,目前具体任务细节和技术参数暂未公开,后续进展值得持续关注。

基本信息
目录编号:
63240
目录名称:
ALMUNTHER
国际标识:
2025-052AG
轨道中心:
EARTH
卫星名称:
ALMUNTHER
卫星全名:
ALMUNTHER
卫星状态:
在轨 (已飞行538 天)
发射日期:
2025-03-15 UTC
国别 :
(BH)
星等 :
--
轨道信息
数据来源 国际轨道数据
星历时间: 2026-09-03T12:11:33+0800
22小时前
查看轨道信息
半长轴: 6841.378km
偏心率: 0.0004575
轨道倾角: 97.375°
近地点辐角 213.181°
升交点赤经 140.851°
平近点角 146.915°
近地点: 460.111km
远地点: 466.371km
周期: 93.859分钟
每日圈数: 15.342194
详细信息
使用方式:
暂无
2D轨道图
3D轨道图
轨道高度分析图
轨道倾角分析图
轨道综合分析图
查看轨道综合分析图
交会数据列表
事件ID 空间交会对象 最接近时刻(TCA) 交会距离 交会风险概率(CRP) 交会风险指数(CRI) 操作
CDM_260903-124806-324006-620323
2026-09-03T
12:48:47+0000
0.385 km
远距离
2.11706E-4 高风险 0.82
CDM_260904-042305-996006-324023
2026-09-04T
04:23:50+0000
0.565 km
远距离
1.532795E-4 高风险 0.79
CDM_260903-160305-816806-324023
2026-09-03T
16:03:38+0000
0.555 km
远距离
9.759062E-5 中风险 0.75
CDM_260904-043805-209806-324024
2026-09-04T
04:38:25+0000
1.219 km
极远距离
1.319685E-5 中风险 0.57
CDM_260905-005606-170706-324021
2026-09-05T
00:56:30+0000
1.300 km
极远距离
1.073035E-5 中风险 0.56
CDM_260904-134206-025806-324022
2026-09-04T
13:42:41+0000
1.454 km
极远距离
7.345094E-6 低风险 0.52
CDM_260903-230804-832606-324022
2026-09-03T
23:08:33+0000
1.630 km
极远距离
5.028435E-6 低风险 0.49
CDM_260904-131504-864606-324022
2026-09-04T
13:15:27+0000
1.813 km
极远距离
3.60919E-6 低风险 0.46
CDM_260903-063606-005306-324022
2026-09-03T
06:36:50+0000
1.839 km
极远距离
3.572269E-6 低风险 0.46
CDM_260903-173805-213206-324023
2026-09-03T
17:38:32+0000
1.844 km
极远距离
3.507505E-6 低风险 0.46